User: anonymous   Login
Location: Caserta
(41.0670°N, 14.3330°E)
Time: 13:51:10
(UTC+02:00)
Language:

STARLINK-1352 - Orbit

View from above orbital plane
View from above orbital plane
View from above satellite
View from above satellite

Ground track
Ground track

The orbit data is extracted from the following two-line orbital elements,

1 45536U 20025F   20227.16667824 -.00029371  00000-0 -20044-2 0  9991
2 45536  52.9984 235.4587 0001279  89.2055 161.7184 15.05590540 18016
Epoch (UTC): 14 August 2020 04:00:01
Eccentricity: 0.0001279
inclination: 52.9984°
perigee height: 549 km
apogee height: 550 km
right ascension of ascending node: 235.4587°
argument of perigee: 89.2055°
revolutions per day: 15.05590540
mean anomaly at epoch: 161.7184°
orbit number at epoch: 1801

The dashed part of the orbit path shows where the satellite is in the earth's shadow,  

DLR